This is the latest recevied weather packets stored in our database for station/object W4WYD-2. If no packets are shown the sender has not sent any weather packets the latest 10 day(s).
| Time | Temp. | Humidity | Pressure | Rain* | Wind** | Luminosity | Snow |
|---|---|---|---|---|---|---|---|
| 1787659874 | 19.44° C | 98% | 1019.5 hPa | 0 mm | - | 29 W/m² | - |
| 1787659572 | 19.44° C | 98% | 1019.4 hPa | 0 mm | - | 23 W/m² | - |
| 1787659268 | 19.44° C | 98% | 1019.4 hPa | 0 mm | - | 14 W/m² | - |
| 1787658967 | 19.44° C | 98% | 1019.4 hPa | 0 mm | - | 9 W/m² | - |
| 1787658667 | 19.44° C | 99% | 1019.4 hPa | 0 mm | - | 9 W/m² | - |
| 1787658362 | 18.89° C | 99% | 1019.5 hPa | 0 mm | - | 9 W/m² | - |
| 1787658058 | 18.89° C | 99% | 1019.4 hPa | 0 mm | - | 7 W/m² | - |
| 1787657753 | 18.89° C | 99% | 1019.5 hPa | 0 mm | - | 4 W/m² | - |
| 1787657448 | 18.89° C | 99% | 1019.1 hPa | 0 mm | - | 3 W/m² | - |
| 1787657148 | 18.89° C | 99% | 1019.1 hPa | 0 mm | - | 2 W/m² | - |
| 1787656839 | 18.89° C | 99% | 1019 hPa | 0 mm | - | 1 W/m² | - |
| 1787656535 | 18.89° C | 99% | 1019.1 hPa | 0 mm | - | 1 W/m² | - |
| 1787656229 | 18.89° C | 99% | 1019.2 hPa | 0 mm | - | 0 W/m² | - |
| 1787655925 | 18.89° C | 99% | 1018.9 hPa | 0 mm | - | 0 W/m² | - |
| 1787655621 | 18.89° C | 99% | 1018.8 hPa | 0 mm | - | 0 W/m² | - |
| 1787655320 | 18.89° C | 99% | 1018.9 hPa | 0 mm | - | 0 W/m² | - |
| 1787655014 | 18.89° C | 99% | 1018.9 hPa | 0 mm | - | 0 W/m² | - |
| 1787654710 | 18.89° C | 99% | 1018.9 hPa | 0 mm | - | 0 W/m² | - |
| 1787654405 | 18.89° C | 99% | 1018.7 hPa | 0 mm | - | 0 W/m² | - |
| 1787654102 | 18.89° C | 99% | 1018.9 hPa | 0 mm | - | 0 W/m² | - |
| 1787653800 | 18.89° C | 99% | 1018.8 hPa | 0 mm | - | 0 W/m² | - |
| 1787653496 | 18.89° C | 99% | 1018.8 hPa | 0 mm | - | 0 W/m² | - |
| 1787653191 | 18.89° C | 99% | 1018.9 hPa | 0 mm | - | 0 W/m² | - |
| 1787652886 | 18.89° C | 99% | 1018.6 hPa | 0 mm | - | 0 W/m² | - |
| 1787652582 | 18.89° C | 99% | 1018.7 hPa | 0 mm | - | 0 W/m² | - |
* Rain latest hour (hover to see other rain measurements)
** Current wind speed in m/s (hover to see current wind gust speed)